Location: Unspecified
(49.8670°N, 0.0000°E)
Time: 23:36:54
(UTC+00:00)

SR - All Passes

Search period start: 17 June 2019 00:00
Search period end: 27 June 2019 00:00
Orbit: 582 x 874 km, 66.7° (Epoch: 17 June)

Date Brightness Start Highest point End Pass type
(mag) Time Alt. Az. Time Alt. Az. Time Alt. Az.
17 Jun - 03:56:35 10° SSE 03:59:14 16° ESE 04:01:55 10° ENE daylight
17 Jun - 05:36:29 10° SW 05:40:42 69° NW 05:45:03 10° NNE daylight
17 Jun - 07:20:46 10° WNW 07:23:35 17° NNW 07:26:28 10° NNE daylight
17 Jun - 10:49:03 10° N 10:51:41 15° NNE 10:54:25 10° ENE daylight
17 Jun - 12:30:15 10° NNW 12:34:48 47° NE 12:39:44 10° ESE daylight
17 Jun - 14:12:28 10° NW 14:16:45 32° WSW 14:21:20 10° S daylight
18 Jun - 04:46:56 10° SSW 04:51:06 61° ESE 04:55:23 10° NE daylight
18 Jun - 06:29:58 10° W 06:33:30 24° NW 06:37:08 10° NNE daylight
18 Jun - 08:16:35 10° NNW 08:17:12 10° N 08:17:49 10° N daylight
18 Jun - 09:59:52 10° N 10:01:25 11° NNE 10:02:59 10° NE daylight
18 Jun - 11:40:50 10° NNW 11:44:57 29° NE 11:49:21 10° E daylight
18 Jun - 13:22:34 10° NW 13:27:17 59° WSW 13:32:23 10° SSE daylight
19 Jun - 03:57:57 10° S 04:01:40 30° ESE 04:05:27 10° NE daylight
19 Jun - 05:39:34 10° WSW 05:43:34 39° NW 05:47:43 10° NNE daylight
19 Jun - 07:24:54 10° NW 07:26:53 13° NNW 07:28:53 10° N daylight
19 Jun - 10:51:29 10° NNW 10:54:55 20° NNE 10:58:34 10° E daylight
19 Jun - 12:32:54 10° NW 12:37:40 78° NE 12:42:51 10° SE daylight
19 Jun - 14:15:53 10° WNW 14:19:16 19° WSW 14:22:50 10° SSW daylight
20 Jun - 03:09:54 10° SE 03:12:23 15° ESE 03:14:55 10° ENE daylight
20 Jun - 04:49:35 10° SW 04:53:49 73° NW 04:58:11 10° NNE daylight
20 Jun - 06:33:45 10° WNW 06:36:40 17° NNW 06:39:39 10° NNE daylight
20 Jun - 10:02:10 10° N 10:04:46 15° NNE 10:07:27 10° ENE daylight
20 Jun - 11:43:22 10° NNW 11:47:56 45° NE 11:52:51 10° ESE daylight
20 Jun - 13:25:33 10° NW 13:29:55 34° WSW 13:34:36 10° S daylight
21 Jun - 04:00:05 10° SSW 04:04:13 58° ESE 04:08:31 10° NE daylight
21 Jun - 05:43:00 10° W 05:46:35 25° NW 05:50:18 10° NNE daylight
21 Jun - 07:29:22 10° NNW 07:30:16 10° NNW 07:31:09 10° N daylight
21 Jun - 09:13:00 10° N 09:14:29 11° NNE 09:16:00 10° NE daylight
21 Jun - 10:53:58 10° NNW 10:58:03 29° NE 11:02:25 10° E daylight
21 Jun - 12:35:40 10° NW 12:40:25 63° WSW 12:45:35 10° SSE daylight
21 Jun - 14:21:11 10° W 14:21:40 10° WSW 14:22:10 10° WSW daylight
22 Jun - 03:11:10 10° S 03:14:49 28° ESE 03:18:33 10° NE daylight
22 Jun - 04:52:38 10° WSW 04:56:41 41° NW 05:00:53 10° NNE daylight
22 Jun - 06:37:51 10° NW 06:39:57 13° NNW 06:42:06 10° N daylight
22 Jun - 10:04:36 10° NNW 10:08:02 20° NNE 10:11:37 10° ENE daylight
22 Jun - 11:46:00 10° NW 11:50:48 74° NE 11:56:00 10° SE daylight
22 Jun - 13:28:54 10° WNW 13:32:27 20° WSW 13:36:11 10° SSW daylight
23 Jun - 02:23:15 10° SE 02:25:33 14° ESE 02:27:54 10° ENE visible
23 Jun - 04:02:41 10° SW 04:06:56 77° NW 04:11:20 10° NE daylight
23 Jun - 05:46:45 10° WNW 05:49:45 18° NNW 05:52:49 10° NNE daylight
23 Jun - 09:15:19 10° N 09:17:51 14° NNE 09:20:29 10° NE daylight
23 Jun - 10:56:30 10° NNW 11:01:03 44° NE 11:05:58 10° ESE daylight
23 Jun - 12:38:37 10° NW 12:43:05 36° WSW 12:47:51 10° S daylight
24 Jun - 03:13:14 10° SSW 03:17:22 54° ESE 03:21:38 10° NE daylight
24 Jun - 04:56:02 10° W 04:59:41 26° NW 05:03:28 10° NNE daylight
24 Jun - 06:42:14 10° NNW 06:43:20 11° NNW 06:44:27 10° N daylight
24 Jun - 08:26:06 10° N 08:27:33 11° NNE 08:29:02 10° NNE daylight
24 Jun - 10:07:05 10° NNW 10:11:09 28° NE 10:15:31 10° E daylight
24 Jun - 11:48:46 10° NW 11:53:35 66° WSW 11:58:47 10° SSE daylight
24 Jun - 13:33:30 10° W 13:34:51 11° WSW 13:36:13 10° WSW daylight
25 Jun - 02:24:23 10° S 02:27:58 27° ESE 02:31:37 10° NE visible
25 Jun - 04:05:42 10° WSW 04:09:47 44° NW 04:14:02 10° NNE daylight
25 Jun - 05:50:48 10° NW 05:53:01 14° NNW 05:55:18 10° N daylight
25 Jun - 09:17:44 10° NNW 09:21:07 19° NNE 09:24:41 10° ENE daylight
25 Jun - 10:59:08 10° NNW 11:03:56 71° NE 11:09:10 10° SE daylight
25 Jun - 12:41:55 10° WNW 12:45:36 21° WSW 12:49:31 10° SSW daylight
26 Jun - 01:36:36 10° SE 01:38:43 14° ESE 01:40:52 10° ENE visible
26 Jun - 03:15:48 10° SW 03:20:03 81° NW 03:24:29 10° NE daylight
26 Jun - 04:59:45 10° WNW 05:02:49 19° NNW 05:06:00 10° NNE daylight
26 Jun - 08:28:26 10° N 08:30:56 14° NNE 08:33:31 10° NE daylight
26 Jun - 10:09:37 10° NNW 10:14:11 42° NE 10:19:05 10° ESE daylight
26 Jun - 11:51:42 10° NW 11:56:14 38° WSW 12:01:06 10° S daylight
